Time,TemperatureF,DewpointF,PressureIn,WindDirection,WindDirectionDegrees,WindSpeedMPH,WindSpeedGustMPH,Humidity,HourlyPrecipIn,Conditions,Clouds,dailyrainin,SoftwareType,DateUTC
2013-03-09 00:02:00,32.0,25.0,30.37,NE,54,2.0,6.0,74,0.00,,,0.00,,2013-03-09 05:02:00,
2013-03-09 00:12:00,32.0,25.0,30.37,NE,54,2.0,6.0,74,0.00,,,0.00,,2013-03-09 05:12:00,
2013-03-09 00:22:00,32.0,25.0,30.37,ENE,76,1.0,6.0,75,0.00,,,0.00,,2013-03-09 05:22:00,
2013-03-09 00:32:00,31.0,24.0,30.36,ENE,66,1.0,4.0,76,0.00,,,0.00,,2013-03-09 05:32:00,
2013-03-09 00:43:00,31.0,24.0,30.36,ENE,66,1.0,4.0,76,0.00,,,0.00,,2013-03-09 05:43:00,
2013-03-09 00:53:00,31.0,25.0,30.36,NE,50,2.0,5.0,77,0.00,,,0.00,,2013-03-09 05:53:00,
2013-03-09 01:02:00,31.0,25.0,30.36,ENE,61,1.0,3.0,77,0.00,,,0.00,,2013-03-09 06:02:00,
2013-03-09 01:11:00,30.0,24.0,30.36,NE,50,1.0,3.0,78,0.00,,,0.00,,2013-03-09 06:11:00,
2013-03-09 01:22:00,30.0,24.0,30.36,NE,50,1.0,3.0,78,0.00,,,0.00,,2013-03-09 06:22:00,
2013-03-09 01:32:00,30.0,24.0,30.37,NE,49,1.0,3.0,78,0.00,,,0.00,,2013-03-09 06:32:00,
2013-03-09 01:42:00,30.0,24.0,30.37,NE,49,1.0,3.0,78,0.00,,,0.00,,2013-03-09 06:42:00,
2013-03-09 01:52:00,30.0,24.0,30.37,ENE,76,1.0,4.0,79,0.00,,,0.00,,2013-03-09 06:52:00,
2013-03-09 02:01:00,30.0,24.0,30.37,ENE,68,3.0,5.0,79,0.00,,,0.00,,2013-03-09 07:01:00,
2013-03-09 02:11:00,30.0,24.0,30.37,ENE,68,3.0,5.0,79,0.00,,,0.00,,2013-03-09 07:11:00,
2013-03-09 02:21:00,30.0,25.0,30.36,ENE,63,2.0,5.0,80,0.00,,,0.00,,2013-03-09 07:21:00,
2013-03-09 02:32:00,30.0,25.0,30.36,ENE,69,3.0,5.0,80,0.00,,,0.00,,2013-03-09 07:32:00,
2013-03-09 02:42:00,30.0,25.0,30.36,ENE,69,3.0,5.0,80,0.00,,,0.00,,2013-03-09 07:42:00,
2013-03-09 02:52:00,30.0,25.0,30.36,ENE,64,2.0,7.0,81,0.00,,,0.00,,2013-03-09 07:52:00,
2013-03-09 03:01:00,30.0,25.0,30.36,ENE,59,2.0,5.0,81,0.00,,,0.00,,2013-03-09 08:01:00,
2013-03-09 03:11:00,30.0,25.0,30.36,ENE,59,2.0,5.0,81,0.00,,,0.00,,2013-03-09 08:11:00,
2013-03-09 03:22:00,29.0,24.0,30.36,ENE,65,1.0,5.0,82,0.00,,,0.00,,2013-03-09 08:22:00,
2013-03-09 03:32:00,29.0,24.0,30.36,ENE,74,2.0,5.0,82,0.00,,,0.00,,2013-03-09 08:32:00,
2013-03-09 03:42:00,29.0,24.0,30.36,ENE,74,2.0,5.0,82,0.00,,,0.00,,2013-03-09 08:42:00,
2013-03-09 03:52:00,29.0,25.0,30.36,ENE,64,3.0,4.0,83,0.00,,,0.00,,2013-03-09 08:52:00,
2013-03-09 04:02:00,29.0,25.0,30.36,ENE,57,2.0,6.0,83,0.00,,,0.00,,2013-03-09 09:02:00,
2013-03-09 04:12:00,29.0,25.0,30.36,ENE,57,2.0,6.0,83,0.00,,,0.00,,2013-03-09 09:12:00,
2013-03-09 04:21:00,29.0,25.0,30.35,NE,48,2.0,5.0,84,0.00,,,0.00,,2013-03-09 09:21:00,
2013-03-09 04:32:00,29.0,25.0,30.35,ENE,67,2.0,6.0,84,0.00,,,0.00,,2013-03-09 09:32:00,
2013-03-09 04:42:00,29.0,25.0,30.35,ENE,67,2.0,6.0,84,0.00,,,0.00,,2013-03-09 09:42:00,
2013-03-09 04:52:00,29.0,25.0,30.35,ENE,59,2.0,5.0,85,0.00,,,0.00,,2013-03-09 09:52:00,
2013-03-09 05:01:00,29.0,25.0,30.36,ENE,67,1.0,5.0,85,0.00,,,0.00,,2013-03-09 10:01:00,
2013-03-09 05:11:00,29.0,25.0,30.36,ENE,67,1.0,5.0,85,0.00,,,0.00,,2013-03-09 10:11:00,
2013-03-09 05:22:00,29.0,25.0,30.36,ENE,57,1.0,4.0,85,0.00,,,0.00,,2013-03-09 10:22:00,
2013-03-09 05:32:00,28.0,24.0,30.36,NE,54,2.0,4.0,85,0.00,,,0.00,,2013-03-09 10:32:00,
2013-03-09 05:42:00,28.0,24.0,30.36,NE,54,2.0,4.0,85,0.00,,,0.00,,2013-03-09 10:42:00,
2013-03-09 05:52:00,28.0,24.0,30.36,NE,52,0.0,3.0,85,0.00,,,0.00,,2013-03-09 10:52:00,
2013-03-09 06:01:00,28.0,24.0,30.36,NE,52,0.0,2.0,85,0.00,,,0.00,,2013-03-09 11:01:00,
2013-03-09 06:11:00,28.0,24.0,30.36,NE,52,0.0,2.0,85,0.00,,,0.00,,2013-03-09 11:11:00,
2013-03-09 06:21:00,28.0,24.0,30.36,NE,53,1.0,2.0,86,0.00,,,0.00,,2013-03-09 11:21:00,
2013-03-09 06:32:00,28.0,24.0,30.36,NE,53,1.0,3.0,86,0.00,,,0.00,,2013-03-09 11:32:00,
2013-03-09 06:42:00,28.0,24.0,30.36,NE,53,1.0,3.0,86,0.00,,,0.00,,2013-03-09 11:42:00,
2013-03-09 06:52:00,28.0,24.0,30.37,NE,53,0.0,3.0,86,0.00,,,0.00,,2013-03-09 11:52:00,
2013-03-09 07:02:00,27.0,23.0,30.38,NE,51,0.0,4.0,86,0.00,,,0.00,,2013-03-09 12:02:00,
2013-03-09 07:11:00,27.0,23.0,30.38,NE,51,0.0,4.0,86,0.00,,,0.00,,2013-03-09 12:11:00,
2013-03-09 07:22:00,28.0,24.0,30.39,ENE,57,2.0,4.0,86,0.00,,,0.00,,2013-03-09 12:22:00,
2013-03-09 07:32:00,28.0,24.0,30.39,ENE,63,1.0,4.0,86,0.00,,,0.00,,2013-03-09 12:32:00,
2013-03-09 07:42:00,28.0,24.0,30.39,ENE,63,1.0,4.0,86,0.00,,,0.00,,2013-03-09 12:42:00,
2013-03-09 07:52:00,28.0,25.0,30.39,NE,55,2.0,5.0,87,0.00,,,0.00,,2013-03-09 12:52:00,
2013-03-09 08:02:00,29.0,26.0,30.39,NE,53,2.0,5.0,87,0.00,,,0.00,,2013-03-09 13:02:00,
2013-03-09 08:11:00,29.0,26.0,30.39,NE,53,2.0,5.0,87,0.00,,,0.00,,2013-03-09 13:11:00,
2013-03-09 08:21:00,30.0,26.0,30.39,ENE,75,3.0,5.0,86,0.00,,,0.00,,2013-03-09 13:21:00,
2013-03-09 08:32:00,30.0,26.0,30.40,NE,42,3.0,9.0,85,0.00,,,0.00,,2013-03-09 13:32:00,
2013-03-09 08:42:00,30.0,26.0,30.40,NE,42,3.0,9.0,85,0.00,,,0.00,,2013-03-09 13:42:00,
2013-03-09 08:52:00,31.0,27.0,30.39,ENE,75,3.0,7.0,85,0.00,,,0.00,,2013-03-09 13:52:00,
2013-03-09 09:01:00,32.0,28.0,30.39,NE,51,4.0,10.0,84,0.00,,,0.00,,2013-03-09 14:01:00,
2013-03-09 09:11:00,32.0,28.0,30.39,NE,51,4.0,10.0,84,0.00,,,0.00,,2013-03-09 14:11:00,
2013-03-09 09:21:00,34.0,29.0,30.40,NE,53,2.0,6.0,83,0.00,,,0.00,,2013-03-09 14:21:00,
2013-03-09 09:32:00,34.0,29.0,30.40,ESE,121,1.0,5.0,83,0.00,,,0.00,,2013-03-09 14:32:00,
2013-03-09 09:42:00,34.0,29.0,30.40,ESE,121,1.0,5.0,83,0.00,,,0.00,,2013-03-09 14:42:00,
2013-03-09 09:52:00,35.0,30.0,30.40,East,79,2.0,6.0,81,0.00,,,0.00,,2013-03-09 14:52:00,
2013-03-09 10:02:00,36.0,30.0,30.40,NE,36,2.0,9.0,80,0.00,,,0.00,,2013-03-09 15:02:00,
2013-03-09 10:12:00,36.0,30.0,30.40,NE,36,2.0,9.0,80,0.00,,,0.00,,2013-03-09 15:12:00,
2013-03-09 10:22:00,36.0,30.0,30.41,NE,52,2.0,9.0,80,0.00,,,0.00,,2013-03-09 15:22:00,
2013-03-09 10:32:00,37.0,31.0,30.40,NNE,30,1.0,6.0,80,0.00,,,0.00,,2013-03-09 15:32:00,
2013-03-09 10:42:00,37.0,31.0,30.40,NNE,30,1.0,6.0,80,0.00,,,0.00,,2013-03-09 15:42:00,
2013-03-09 10:52:00,37.0,31.0,30.40,ENE,59,0.0,5.0,80,0.00,,,0.00,,2013-03-09 15:52:00,
2013-03-09 11:01:00,38.0,32.0,30.38,NE,44,1.0,5.0,79,0.00,,,0.00,,2013-03-09 16:01:00,
2013-03-09 11:11:00,38.0,32.0,30.38,NE,44,1.0,5.0,79,0.00,,,0.00,,2013-03-09 16:11:00,
2013-03-09 11:21:00,39.0,32.0,30.38,NNW,333,0.0,3.0,76,0.00,,,0.00,,2013-03-09 16:21:00,
2013-03-09 11:32:00,40.0,33.0,30.38,NNE,27,0.0,4.0,75,0.00,,,0.00,,2013-03-09 16:32:00,
2013-03-09 11:42:00,40.0,33.0,30.38,NNE,27,0.0,4.0,75,0.00,,,0.00,,2013-03-09 16:42:00,
2013-03-09 11:52:00,40.0,32.0,30.38,East,82,0.0,5.0,73,0.00,,,0.00,,2013-03-09 16:52:00,
2013-03-09 12:01:00,41.0,32.0,30.37,NNW,329,1.0,4.0,70,0.00,,,0.00,,2013-03-09 17:01:00,
2013-03-09 12:11:00,41.0,32.0,30.37,NNW,329,1.0,4.0,70,0.00,,,0.00,,2013-03-09 17:11:00,
2013-03-09 12:22:00,43.0,32.0,30.37,NNW,327,0.0,4.0,66,0.00,,,0.00,,2013-03-09 17:22:00,
2013-03-09 12:32:00,43.0,31.0,30.37,NNW,327,0.0,1.0,63,0.00,,,0.00,,2013-03-09 17:32:00,
2013-03-09 12:42:00,43.0,31.0,30.37,NNW,327,0.0,1.0,63,0.00,,,0.00,,2013-03-09 17:42:00,
2013-03-09 12:52:00,44.0,32.0,30.36,NNE,27,0.0,2.0,63,0.00,,,0.00,,2013-03-09 17:52:00,
2013-03-09 13:02:00,45.0,32.0,30.35,ESE,103,1.0,3.0,61,0.00,,,0.00,,2013-03-09 18:02:00,
2013-03-09 13:11:00,45.0,32.0,30.35,ESE,103,1.0,3.0,61,0.00,,,0.00,,2013-03-09 18:11:00,
2013-03-09 13:21:00,46.0,33.0,30.35,SE,144,0.0,4.0,60,0.00,,,0.00,,2013-03-09 18:21:00,
2013-03-09 13:32:00,45.0,31.0,30.34,South,183,0.0,7.0,58,0.00,,,0.00,,2013-03-09 18:32:00,
2013-03-09 13:42:00,45.0,31.0,30.34,South,183,0.0,7.0,58,0.00,,,0.00,,2013-03-09 18:42:00,
2013-03-09 13:52:00,45.0,31.0,30.34,SSW,209,0.0,4.0,57,0.00,,,0.00,,2013-03-09 18:52:00,
2013-03-09 14:01:00,45.0,32.0,30.34,East,79,0.0,3.0,60,0.00,,,0.00,,2013-03-09 19:01:00,
2013-03-09 14:12:00,45.0,32.0,30.34,East,79,0.0,3.0,60,0.00,,,0.00,,2013-03-09 19:12:00,
2013-03-09 14:22:00,46.0,32.0,30.33,SSW,211,1.0,3.0,58,0.00,,,0.00,,2013-03-09 19:22:00,
2013-03-09 14:32:00,46.0,31.0,30.33,WSW,242,0.0,4.0,55,0.00,,,0.00,,2013-03-09 19:32:00,
2013-03-09 14:42:00,46.0,31.0,30.33,WSW,242,0.0,4.0,55,0.00,,,0.00,,2013-03-09 19:42:00,
2013-03-09 14:52:00,46.0,31.0,30.32,WNW,291,1.0,3.0,55,0.00,,,0.00,,2013-03-09 19:52:00,
2013-03-09 15:01:00,46.0,31.0,30.32,SW,220,0.0,3.0,56,0.00,,,0.00,,2013-03-09 20:01:00,
2013-03-09 15:11:00,46.0,31.0,30.32,SW,220,0.0,3.0,56,0.00,,,0.00,,2013-03-09 20:11:00,
2013-03-09 15:22:00,47.0,32.0,30.32,SW,224,0.0,4.0,56,0.00,,,0.00,,2013-03-09 20:22:00,
2013-03-09 15:32:00,47.0,32.0,30.32,South,181,1.0,4.0,56,0.00,,,0.00,,2013-03-09 20:32:00,
2013-03-09 15:42:00,47.0,32.0,30.32,South,181,1.0,4.0,56,0.00,,,0.00,,2013-03-09 20:42:00,
2013-03-09 15:52:00,47.0,35.0,30.31,South,169,0.0,2.0,62,0.00,,,0.00,,2013-03-09 20:52:00,
2013-03-09 16:02:00,46.0,34.0,30.31,North,350,0.0,3.0,62,0.00,,,0.00,,2013-03-09 21:02:00,
2013-03-09 16:12:00,46.0,34.0,30.31,North,350,0.0,3.0,62,0.00,,,0.00,,2013-03-09 21:12:00,
2013-03-09 16:22:00,45.0,33.0,30.31,WSW,249,0.0,5.0,63,0.00,,,0.00,,2013-03-09 21:22:00,
2013-03-09 16:32:00,45.0,33.0,30.31,SSW,207,0.0,6.0,63,0.00,,,0.00,,2013-03-09 21:32:00,
2013-03-09 16:42:00,45.0,33.0,30.31,SSW,207,0.0,6.0,63,0.00,,,0.00,,2013-03-09 21:42:00,
2013-03-09 16:52:00,44.0,32.0,30.29,SSE,165,1.0,5.0,62,0.00,,,0.00,,2013-03-09 21:52:00,
2013-03-09 17:01:00,43.0,31.0,30.29,SW,216,1.0,5.0,63,0.00,,,0.00,,2013-03-09 22:01:00,
2013-03-09 17:11:00,43.0,31.0,30.29,SW,216,1.0,5.0,63,0.00,,,0.00,,2013-03-09 22:11:00,
2013-03-09 17:22:00,43.0,31.0,30.29,SW,218,1.0,6.0,63,0.00,,,0.00,,2013-03-09 22:22:00,
2013-03-09 17:32:00,43.0,31.0,30.29,South,184,1.0,5.0,63,0.00,,,0.00,,2013-03-09 22:32:00,
2013-03-09 17:42:00,43.0,31.0,30.29,South,184,1.0,5.0,63,0.00,,,0.00,,2013-03-09 22:42:00,
2013-03-09 17:52:00,41.0,29.0,30.29,SW,214,0.0,2.0,63,0.00,,,0.00,,2013-03-09 22:52:00,
2013-03-09 18:01:00,41.0,30.0,30.29,SSW,196,1.0,4.0,64,0.00,,,0.00,,2013-03-09 23:01:00,
2013-03-09 18:11:00,41.0,30.0,30.29,SSW,196,1.0,4.0,64,0.00,,,0.00,,2013-03-09 23:11:00,
2013-03-09 18:22:00,40.0,30.0,30.29,SW,214,0.0,3.0,66,0.00,,,0.00,,2013-03-09 23:22:00,
2013-03-09 18:32:00,39.0,29.0,30.30,SW,214,0.0,1.0,67,0.00,,,0.00,,2013-03-09 23:32:00,
2013-03-09 18:42:00,39.0,29.0,30.30,SW,214,0.0,1.0,67,0.00,,,0.00,,2013-03-09 23:42:00,
2013-03-09 18:52:00,38.0,28.0,30.30,SW,214,0.0,0.0,67,0.00,,,0.00,,2013-03-09 23:52:00,
2013-03-09 19:02:00,37.0,27.0,30.30,SW,214,0.0,3.0,66,0.00,,,0.00,,2013-03-10 00:02:00,
2013-03-09 19:11:00,37.0,27.0,30.30,SW,214,0.0,3.0,66,0.00,,,0.00,,2013-03-10 00:11:00,
2013-03-09 19:22:00,37.0,26.0,30.29,SW,229,0.0,2.0,65,0.00,,,0.00,,2013-03-10 00:22:00,
2013-03-09 19:32:00,37.0,26.0,30.29,WSW,258,0.0,4.0,64,0.00,,,0.00,,2013-03-10 00:32:00,
2013-03-09 19:42:00,37.0,26.0,30.29,WSW,258,0.0,4.0,64,0.00,,,0.00,,2013-03-10 00:42:00,
2013-03-09 19:52:00,36.0,25.0,30.29,WSW,257,0.0,4.0,63,0.00,,,0.00,,2013-03-10 00:52:00,
2013-03-09 20:01:00,36.0,25.0,30.29,WSW,253,0.0,4.0,63,0.00,,,0.00,,2013-03-10 01:01:00,
2013-03-09 20:11:00,36.0,25.0,30.29,WSW,253,0.0,4.0,63,0.00,,,0.00,,2013-03-10 01:11:00,
2013-03-09 20:21:00,35.0,24.0,30.28,WSW,240,1.0,3.0,64,0.00,,,0.00,,2013-03-10 01:21:00,
2013-03-09 20:32:00,35.0,24.0,30.28,SW,233,2.0,4.0,65,0.00,,,0.00,,2013-03-10 01:32:00,
2013-03-09 20:42:00,35.0,24.0,30.28,SW,233,2.0,4.0,65,0.00,,,0.00,,2013-03-10 01:42:00,
2013-03-09 20:52:00,35.0,25.0,30.28,WSW,254,1.0,4.0,66,0.00,,,0.00,,2013-03-10 01:52:00,
2013-03-09 21:01:00,35.0,25.0,30.28,WSW,250,1.0,4.0,66,0.00,,,0.00,,2013-03-10 02:01:00,
2013-03-09 21:11:00,35.0,25.0,30.28,WSW,250,1.0,4.0,66,0.00,,,0.00,,2013-03-10 02:11:00,
2013-03-09 21:22:00,34.0,25.0,30.27,West,273,0.0,4.0,68,0.00,,,0.00,,2013-03-10 02:22:00,
2013-03-09 21:32:00,34.0,25.0,30.27,West,260,2.0,4.0,68,0.00,,,0.00,,2013-03-10 02:32:00,
2013-03-09 21:42:00,34.0,25.0,30.27,West,260,2.0,4.0,68,0.00,,,0.00,,2013-03-10 02:42:00,
2013-03-09 21:52:00,34.0,25.0,30.27,West,268,1.0,3.0,69,0.00,,,0.00,,2013-03-10 02:52:00,
2013-03-09 22:02:00,34.0,25.0,30.27,West,270,2.0,3.0,70,0.00,,,0.00,,2013-03-10 03:02:00,
2013-03-09 22:12:00,34.0,25.0,30.26,WSW,250,2.0,5.0,70,0.00,,,0.00,,2013-03-10 03:12:00,
2013-03-09 22:22:00,34.0,25.0,30.26,WSW,250,2.0,5.0,70,0.00,,,0.00,,2013-03-10 03:22:00,
2013-03-09 22:32:00,34.0,25.0,30.26,West,281,2.0,5.0,70,0.00,,,0.00,,2013-03-10 03:32:00,
2013-03-09 22:42:00,34.0,25.0,30.26,West,281,2.0,5.0,70,0.00,,,0.00,,2013-03-10 03:42:00,
2013-03-09 22:52:00,34.0,25.0,30.24,West,280,2.0,10.0,70,0.00,,,0.00,,2013-03-10 03:52:00,
2013-03-09 23:01:00,34.0,25.0,30.24,West,275,4.0,9.0,70,0.00,,,0.00,,2013-03-10 04:01:00,
2013-03-09 23:11:00,34.0,25.0,30.24,West,275,4.0,9.0,70,0.00,,,0.00,,2013-03-10 04:11:00,
2013-03-09 23:22:00,34.0,25.0,30.24,West,259,3.0,7.0,70,0.00,,,0.00,,2013-03-10 04:22:00,
2013-03-09 23:32:00,34.0,25.0,30.24,WNW,286,3.0,10.0,70,0.00,,,0.00,,2013-03-10 04:32:00,
2013-03-09 23:42:00,34.0,25.0,30.24,WNW,286,3.0,10.0,70,0.00,,,0.00,,2013-03-10 04:42:00,
2013-03-09 23:52:00,34.0,26.0,30.24,West,273,2.0,9.0,71,0.00,,,0.00,,2013-03-10 04:52:00,